Home > Weather > Fresnillo > Past weeks

Flag for Mexico Past Weather in Fresnillo, Zacatecas, Mexico — Yesterday and Last 2 Weeks

Now
59 °F

Rain. Overcast.


Feels Like: 58 °F
Forecast: 59 / 70 °F
Wind: 7 mph from Northeast

Location: Zacatecas Airport

Current Time: Jul 28, 2016 at 3:45:53 AM

Latest Report: Jul 28, 2016 at 1:27 AM


Visibility: 8 mi

Pressure: 30.32 "Hg (23.39 "Hg at 2187m altitude)

Humidity: 82%

Dew Point: 54 °F

Location of FresnilloLocation

Past Weather in Fresnillo — Graph

°F

Fresnillo Temperature Yesterday

Maximum temperature yesterday: 81 °F (at 4:45 PM)
Minimum temperature yesterday: 59 °F (at 6:44 AM)
Average temperature yesterday: 69 °F

High & Low Weather Summary for the Past Weeks

 TemperatureHumidityPressure
High82 °F (Jul 24, 4:51 PM)88% (Jul 13, 3:45 AM)30.43 "Hg (Jul 13, 3:45 AM)
Low48 °F (Jul 17, 6:50 AM)18% (Jul 16, 5:57 PM)30.14 "Hg (Jul 26, 5:48 PM)
Average68 °F52%30.32 "Hg
* Reported Jul 13 2:45 AM — Jul 28 1:27 AM, Fresnillo, Weather by CustomWeather, © 2016

Note: Actual official high and low records may vary slightly from our data, if they occured in-between our weather recording intervals... More about our weather records

Advertising

Fresnillo Weather History for the Previous 24 Hours

Scroll right to see more
 ConditionsComfort  
Time TempWeatherWind HumidityBarometerVisibility
1:27 AM
Thu, Jul 28
59 °FRain. Overcast.7 mph82%30.32 "Hg8 mi
1:00 AM59 °FOvercast.7 mph82%30.33 "Hg8 mi
10:47 PM
Wed, Jul 27
61 °FPassing clouds.13 mph77%30.30 "Hg8 mi
9:49 PM63 °FPassing clouds.14 mph73%30.29 "Hg8 mi
8:50 PM63 °FPartly sunny.12 mph73%30.25 "Hg7 mi
8:09 PM64 °FPartly sunny.29 mph68%30.23 "Hg6 mi
7:49 PM66 °FPartly sunny.17 mph60%30.23 "Hg7 mi
5:54 PM75 °FScattered clouds.12 mph39%30.17 "Hg10 mi
4:45 PM81 °FScattered clouds.12 mph32%30.18 "Hg10 mi
3:51 PM77 °FScattered clouds.7 mph36%30.21 "Hg10 mi
2:48 PM73 °FPartly sunny.12 mph44%30.25 "Hg10 mi
2:07 PM72 °FPartly sunny.6 mph50%30.28 "Hg10 mi
1:12 PM73 °FPartly sunny.6 mph47%30.28 "Hg8 mi
12:47 PM72 °FScattered clouds.No wind47%30.29 "Hg10 mi
11:47 AM72 °FScattered clouds.7 mph50%30.31 "Hg10 mi
10:47 AM68 °FScattered clouds.No wind60%30.30 "Hg10 mi
9:58 AM66 °FScattered clouds.No wind64%30.30 "Hg10 mi
8:54 AM61 °FScattered clouds.No wind77%30.29 "Hg10 mi
6:44 AM59 °FClear.No wind77%30.25 "Hg10 mi
Weather by CustomWeather, © 2016

See weather overviewHow to use our weather pages